Simultaneous Nadir Overpasses (SNOs) Predictions

Prediction of SNOs between LANDSAT-8 and METOP-A Satellite Orbit:

Table of predicted SNOs for the next 14.0 days since TLE Epoch: 5/31/2019
Index Date (LANDSAT-8) Time (LANDSAT-8) Lat,Lon (LANDSAT-8) SZA (LANDSAT-8 ) Date (METOP-A) Time (METOP-A) Lat,Lon (METOP-A) SZA (METOP-A ) Distance(km) Time Diff (sec)
1 06/02/2019 17:55:04 -81.47, 137.61 117.93 06/02/2019 17:54:09 -81.47, 137.48 117.97 2.07 55
2 06/02/2019 18:44:30 81.47, -54.67 62.08 06/02/2019 18:44:49 81.47, -54.85 62.07 2.96 19
3 06/05/2019 13:29:21 -81.46,-156.11 118.29 06/05/2019 13:28:33 -81.47,-156.08 118.31 0.94 48
4 06/05/2019 14:18:47 81.46, 11.59 61.72 06/05/2019 14:19:13 81.47, 11.57 61.73 0.63 26
5 06/08/2019 09:03:37 -81.47, -89.45 118.56 06/08/2019 09:02:56 -81.47, -89.26 118.55 3.26 41
6 06/08/2019 09:53:03 81.47, 78.22 61.45 06/08/2019 09:53:36 81.47, 78.39 61.48 2.76 33
7 06/11/2019 04:37:54 -81.46, -23.22 118.83 06/11/2019 04:37:21 -81.47, -23.25 118.84 0.90 33
8 06/11/2019 05:27:20 81.46, 144.44 61.18 06/11/2019 05:28:01 81.47, 144.38 61.20 1.15 41
9 06/14/2019 00:12:09 -81.47, 43.38 118.99 06/14/2019 00:11:43 -81.47, 43.55 118.99 2.68 26




NCC Satellite Simultaneous Nadir Overpasses (SNOs) Prediction Service
